Regional Weather Roundup
Issued by NWS

Home | Current Version | Previous Version | Graphics & Text | Print | Product List | Glossary On
Versions: 1 2 3 4 5 6 7 8 9 10 11 12 13 14 15 16 17 18 19 20 21 22 23 24 25 26 27 28 29 30 31 32 33 34 35 36 37 38 39 40 41 42 43 44 45 46 47 48 49 50
000
ASUS43 KDTX 211810
RWRMI
MICHIGAN HOURLY REGIONAL WEATHER ROUNDUP
NATIONAL WEATHER SERVICE DETROIT/PONTIAC MI
100 PM EST SUN DEC 21 2014

NOTE: "FAIR" INDICATES FEW OR NO CLOUDS BELOW 12,000 FEET WITH NO
SIGNIFICANT WEATHER AND/OR OBSTRUCTION TO VISIBILITY.

MIZ047>049-052>055-059>063-066>070-074>076-081>083-211900-
SOUTHEAST LOWER MICHIGAN

CITY           SKY/WX    TMP DP  RH WIND       PRES   REMARKS
ADRIAN         CLOUDY    32  27  81 S8        30.26F HAZE
6HR MIN TEMP:  26; 6HR MAX TEMP:  32;

ALMA           CLOUDY    33  28  82 S9        30.22F HAZE
ANN ARBOR      CLOUDY    32  24  72 S7        30.25F
BAD AXE        MOSUNNY   32  26  78 S8        30.25F
6HR MIN TEMP:  22; 6HR MAX TEMP:  32;

DETROIT CITY   MOSUNNY   36  23  59 S5        30.27F
6HR MIN TEMP:  25; 6HR MAX TEMP:  37;

DETROIT        PTSUNNY   34  23  64 SE7       30.27F
6HR MIN TEMP:  27; 6HR MAX TEMP:  35;

FLINT          CLOUDY    34  24  67 S10       30.24F
6HR MIN TEMP:  29; 6HR MAX TEMP:  34;

GROSSE ILE     MOSUNNY   36  27  69 S7        30.26F
HILLSDALE      CLOUDY    32  28  82 S9        30.21F HAZE
6HR MIN TEMP:  29; 6HR MAX TEMP:  32;

HOWELL         CLOUDY    32  27  81 SE9       30.23F HAZE
6HR MIN TEMP:  27; 6HR MAX TEMP:  32;


CITY           SKY/WX    TMP DP  RH WIND       PRES   REMARKS
JACKSON        CLOUDY    33  25  72 S10       30.22F
6HR MIN TEMP:  28; 6HR MAX TEMP:  33;

LAMBERTVILLE   CLOUDY    34  27  75 S3        30.26F
LANSING        CLOUDY    33  26  75 S10       30.22F
6HR MIN TEMP:  29; 6HR MAX TEMP:  34;

LAPEER         NOT AVBL
MASON          CLOUDY    32  27  83 S7        30.22F HAZE
MONROE         MOSUNNY   34  25  69 S7        30.25F
MT. CLEMENS    PTSUNNY   34  25  70 SE13      30.24F
6HR MIN TEMP:  22; 6HR MAX TEMP:  35;

PONTIAC        CLOUDY    32  22  66 S8        30.23F
6HR MIN TEMP:  26; 6HR MAX TEMP:  32;

PORT HOPE        N/A     32  24  72 S7        30.23F
6HR MIN TEMP:  21; 6HR MAX TEMP:  32;

PORT HURON     MOSUNNY   34  25  69 S8        30.27F
TRI CITIES     CLOUDY    34  27  75 S8        30.23F
6HR MIN TEMP:  29; 6HR MAX TEMP:  34;

YPSILANTI      CLOUDY    37  23  56 S7        30.26F
6HR MIN TEMP:  29; 6HR MAX TEMP:  37;

$$
MIZ043>046-050>051-056>058-064>065-071>073-077>080-211900-
SOUTHWEST LOWER MICHIGAN

CITY           SKY/WX    TMP DP  RH WIND       PRES   REMARKS
BATTLE CREEK   CLOUDY    34  25  69 S13       30.21F
6HR MIN TEMP:  30; 6HR MAX TEMP:  34;

BENTON HARBOR  PTSUNNY   36  28  73 SE13      30.18F
6HR MIN TEMP:  31; 6HR MAX TEMP:  36;

BIG RAPIDS     CLOUDY    32  31  94 S6        30.17F FOG
6HR MIN TEMP:  30; 6HR MAX TEMP:  32;

COLDWATER      CLOUDY    32  25  74 MISG      30.21F
6HR MIN TEMP:  29; 6HR MAX TEMP:  32;

HOLLAND        CLOUDY    35  27  72 S10       30.19F
6HR MIN TEMP:  32; 6HR MAX TEMP:  35;

GRAND RAPIDS   CLOUDY    33  25  72 S10       30.20F HAZE
6HR MIN TEMP:  30; 6HR MAX TEMP:  33;

KALAMAZOO      CLOUDY    34  25  69 S13       30.20F HAZE
6HR MIN TEMP:  30; 6HR MAX TEMP:  34;

MARSHALL       CLOUDY    32  25  76 S6        30.21F
MUSKEGON       CLOUDY    34  27  75 S8        30.18F
6HR MIN TEMP:  33; 6HR MAX TEMP:  34;

$$
MIZ016>042-211900-
NORTHERN LOWER MICHIGAN

CITY           SKY/WX    TMP DP  RH WIND       PRES   REMARKS
ALPENA         CLOUDY    30  24  78 S12       30.22F
6HR MIN TEMP:  22; 6HR MAX TEMP:  30;

BEAVER ISLAND  CLOUDY    33  32  95 S7        30.14F FOG
6HR MIN TEMP:  31; 6HR MAX TEMP:  33;

BELLAIRE       CLOUDY    33  29  86 S6        30.17F FOG
6HR MIN TEMP:  28; 6HR MAX TEMP:  33;

CADILLAC       CLOUDY    30  29  96 S7        30.14F FOG
CHARLEVOIX     CLOUDY    32  29  90 SE10      30.18F FOG
6HR MIN TEMP:  27; 6HR MAX TEMP:  32;

FRANKFORT      CLOUDY    33  31  92 S8        30.14F FOG
GAYLORD        CLOUDY    29  27  92 S7        30.14F FOG
6HR MIN TEMP:  22; 6HR MAX TEMP:  29;

GRAYLING       CLOUDY    29  28  96 S7        30.17F FOG
6HR MIN TEMP:  26; 6HR MAX TEMP:  29;

HARBOR SPRINGS CLOUDY    30  26  85 CALM      30.16F
HOUGHTON LAKE  CLOUDY    29  27  92 VRB3      30.18F FOG
6HR MIN TEMP:  25; 6HR MAX TEMP:  29;

MANISTEE       CLOUDY    34  28  80 S7        30.15F
OSCODA         CLOUDY    32  26  80 S8        30.22F
PELLSTON       CLOUDY    29  25  85 SE6       30.17F
6HR MIN TEMP:  24; 6HR MAX TEMP:  29;

TRAVERSE CITY  CLOUDY    34  30  85 S5        30.15F FOG
6HR MIN TEMP:  30; 6HR MAX TEMP:  34;

$$
MIZ007>008-015-211900-
EASTERN UPPER MICHIGAN

CITY           SKY/WX    TMP DP  RH WIND       PRES   REMARKS
KINROSS        CLOUDY    30  27  86 SE9       30.17S
6HR MIN TEMP:  25; 6HR MAX TEMP:  30;

MACKINAC ISLAN CLOUDY    29  26  86 SE9       30.16F
6HR MIN TEMP:  28; 6HR MAX TEMP:  30;

NEWBERRY       CLOUDY    28  26  89 SE9       30.12F
6HR MIN TEMP:  27; 6HR MAX TEMP:  28;

S. S. MARIE    CLOUDY    29  23  78 E5        30.19R
6HR MIN TEMP:  25; 6HR MAX TEMP:  29;

$$
MIZ004>006-011>014-085-211900-
CENTRAL UPPER MICHIGAN

CITY           SKY/WX    TMP DP  RH WIND       PRES   REMARKS
MANISTIQUE     CLOUDY    35  34  96 S12       30.10F FOG
6HR MIN TEMP:  29; 6HR MAX TEMP:  35;

ESCANABA       CLOUDY    34  28  80 S5        30.07F
6HR MIN TEMP:  27; 6HR MAX TEMP:  36;

MENOMINEE      CLOUDY    34  30  86 S9        30.06F
6HR MIN TEMP:  28; 6HR MAX TEMP:  34;

SAWYER-GWINN   CLOUDY    30  27  86 S15       30.03F FOG
$$
MIZ001>003-009>011-084-211900-
WESTERN UPPER MICHIGAN

CITY           SKY/WX    TMP DP  RH WIND       PRES   REMARKS
IRON MOUNTAIN  CLOUDY    29  27  92 S9        30.01F FOG
6HR MIN TEMP:  26; 6HR MAX TEMP:  29;

HOUGHTON       CLOUDY    32  27  81 SE8       29.95F
6HR MIN TEMP:  28; 6HR MAX TEMP:  32;

COPPER HARBOR    N/A     34  28  79 SW12G18   29.99F
6HR MIN TEMP:  30; 6HR MAX TEMP:  35;

IRONWOOD       CLOUDY    34  28  80 S8        29.87F
6HR MIN TEMP:  28; 6HR MAX TEMP:  34;

$$

ABBREVIATIONS USED IN REMARKS
   TC - TEMPERATURE IN CELSIUS
  WCI - WIND CHILL INDEX
   HX - HEAT INDEX
  VSB - VISIBILITY




USA.gov is the U.S. government's official web portal to all federal, state and local government web resources and services.